Location: Adrasan
(36.3319°N, 30.4314°E)
Time: 02:35:18
(UTC+00:00)

COSMO-SKYMED 1 - Pass Details

Date: 16 October 2025
Orbit: 580 x 582 km, 97.9° (Epoch: 13 November)

Event Time Altitude Azimuth Distance (km) Brightness Sun altitude
Rises 15:58:20 0° 16° (NNE) 2,807 5.7 -8.3°
Reaches altitude 10° 16:00:31 10° 20° (NNE) 1,903 4.8 -8.8°
Maximum altitude 16:04:36 59° 101° (E) 671 2.4 -9.6°
Drops below altitude 10° 16:08:38 10° 181° (S) 1,887 5.1 -10.4°
Sets 16:10:48 0° 185° (S) 2,781 6.0 -10.8°
